Location: Kolin
(50.0330°N, 15.2000°E)
Time: 01:33:39
(UTC+01:00)

ISS - Pass Details

Date: 04 October 2020
Orbit: 417 x 420 km, 51.6° (Epoch: 25 October)

Event Time Altitude Azimuth Distance (km) Brightness Sun altitude
Rises 20:20:23 0° 284° (WNW) 2,370 1.8 -18.4°
Reaches altitude 10° 20:22:51 10° 267° (W) 1,502 0.1 -18.8°
Maximum altitude 20:25:22 20° 219° (SW) 1,039 -1.5 -19.1°
Enters shadow 20:26:34 17° 190° (S) 1,157 -1.6 -19.3°
